Regional Weather Roundup
Issued by NWS Spokane, WA

Home | Current Version | Previous Version | Text Only | Print | Product List | Glossary On
Versions: 1 2 3 4 5 6 7 8 9 10 11 12 13 14 15 16 17 18 19 20 21 22 23 24 25 26 27 28 29 30 31 32 33 34 35 36 37 38 39 40 41 42 43 44 45 46 47 48 49 50
000
NZUS01 KOTX 181610
RWROTX
EASTERN WASHINGTON/NORTHERN IDAHO ROUNDUP
NATIONAL WEATHER SERVICE, SPOKANE WA
900 AM PDT THU SEP 18 2014

Note: "fair" indicated few or no clouds below 12,000 feet with no
significant weather and/or obstructions to visibility.

...NORTHEAST WASHINGTON AND NORTHERN IDAHO PANHANDLE...

CITY           SKY/WX    TMP DP  RH WIND       PRES   REMARKS
SPOKANE INTL   PTSUNNY   62  43  49 S12       29.73R
SPOKANE DOWNTO PTSUNNY   66  42  41 S9        29.73R
COEUR D ALENE  MOSUNNY   64  46  52 S8        29.74R
DEER PARK      CLOUDY    62  44  51 SE8       29.73R
SANDPOINT      PTSUNNY   61  54  77 S6        29.72R

...SOUTHEAST WASHINGTON AND SOUTHERN IDAHO PANHANDLE...

CITY           SKY/WX    TMP DP  RH WIND       PRES   REMARKS
WALLA WALLA    MOSUNNY   73  44  35 SW9       29.75R
PULLMAN/MOSCOW MOSUNNY   67  40  37 S5        29.79R
LEWISTON       MOSUNNY   68  47  46 CALM      29.75R HAZE
LOWELL           N/A     59  57  93 N3        29.79S

...COLUMBIA BASIN...

CITY           SKY/WX    TMP DP  RH WIND       PRES   REMARKS
EPHRATA        CLOUDY    69  50  50 S7        29.68R
MOSES LAKE     CLOUDY    67  53  61 S9        29.69R
TRI CITIES     MOSUNNY   72  53  51 SW7       29.70R
HERMISTON      MOSUNNY   72  46  39 SE6       29.73R
PENDLETON      MOSUNNY   69  39  33 S5        29.76R

...EAST SLOPES CASCADES...

CITY           SKY/WX    TMP DP  RH WIND       PRES   REMARKS
THE DALLES     PTSUNNY   71  54  54 W18G25    29.73R
YAKIMA         PTSUNNY   67  54  63 CALM      29.72R
ELLENSBURG     CLOUDY    68  51  54 NW18G26   29.73R
WENATCHEE      PTSUNNY   71  48  43 NW5       29.68R
OMAK           CLOUDY    66  48  52 CALM      29.67R

...SOUTHERN BRITISH COLUMBIA...

CITY           SKY/WX    TMP DP  RH WIND       PRES   REMARKS
PENTICTON      CLOUDY    63  55  77 N12       29.69R
CASTLEGAR      CLOUDY    59  54  82 VRB2      29.69R
CRANBROOK      PTSUNNY   55  46  71 VRB2      29.71

...WESTERN MONTANA...

CITY           SKY/WX    TMP DP  RH WIND       PRES   REMARKS
MISSOULA       LGT RAIN  56  48  74 W10       29.86R

...NEIGHBORING CITIES...

CITY           SKY/WX    TMP DP  RH WIND       PRES   REMARKS
SEATTLE        CLOUDY    61  58  90 S5        29.81R
CALGARY        PTSUNNY   63  46  55 SW7       29.62S



USA.gov is the U.S. government's official web portal to all federal, state and local government web resources and services.